Regional Weather Roundup
Issued by NWS

Home | Current Version | Previous Version | Graphics & Text | Print | Product List | Glossary On
Versions: 1 2 3 4 5 6 7 8 9 10 11 12 13 14 15 16 17 18 19 20 21 22 23 24 25 26 27 28 29 30 31 32 33 34 35 36 37 38 39 40 41 42 43 44 45 46 47 48 49 50
000
ASUS43 KLOT 010800
RWRIL

ILLINOIS REGIONAL WEATHER ROUNDUP
NATIONAL WEATHER SERVICE CHICAGO/ROMEOVILLE IL
200 AM CST SUN FEB 01 2015

NOTE: "FAIR" INDICATES FEW OR NO CLOUDS BELOW 12,000 FEET WITH NO
SIGNIFICANT WEATHER AND/OR OBSTRUCTIONS TO VISIBILITY.

* THESE STATIONS ARE NOT UNDER NWS QUALITY CONTROL. THEY ALSO MAY NOT
  REPORT WEATHER SUCH AS PRECIPITATION OR FOG.

ILZ001-002-007-009-015-016-024-010900-
NORTHWEST ILLINOIS

CITY           SKY/WX    TMP DP  RH WIND       PRES   REMARKS
MOLINE         LGT SNOW  32  31  96 E8        29.97F VSB 1   WCI  25
STERLING*        N/A    N/A N/A N/A MISG        N/A
$$

ILZ003-004-008-010-011-017-018-010900-
NORTH CENTRAL ILLINOIS

CITY           SKY/WX    TMP DP  RH WIND       PRES   REMARKS
ROCKFORD       LGT SNOW  30  27  88 E10       30.08F VSB 1   WCI  21
$$

ILZ005-006-012>014-019>023-010900-
NORTHEAST ILLINOIS

CITY           SKY/WX    TMP DP  RH WIND       PRES   REMARKS
CHICAGO-OHARE  LGT SNOW  31  30  96 E6        30.10F VSB 3/4 WCI  25
CHICAGO-MIDWAY LGT SNOW  33  31  92 E8        30.11F VSB 1   WCI  26
AURORA         LGT SNOW  33  30  88 E8        30.08F VSB 3/4 WCI  26
WAUKEGAN       LGT SNOW  29  28  96 NE13G22   30.11F VSB 3/4 WCI  19
DUPAGE AIRPORT LGT SNOW  31  29  92 E9        30.09S FOG     WCI  23
WHEELING       LGT SNOW  31  29  92 E5        30.12F VSB 3/4 WCI  26
NORTHERLY ISL    N/A     32  30  93 E9          N/A  WCI  24
$$

LMZ740>746-010900-
SOUTHERN LAKE MICHIGAN

STATION/POSITION SKY/WX   TEMP    WIND        PRES    VSBY  WAVE
                          AIR SEA DIR/SP/G                  HT/PER
                          (F)     (DEG/KT/KT) (MB)    (MI)  (FT/S)
WAUKEGAN HARBOR            30      50/ 18/ 22   N/A
HARRISON CRIB              31      60/ 10/ 11   N/A
BURNHAM HARBOR             32      80/  7/  9   N/A
CALUMET HARBOR             31      80/  6/  9   N/A
MICHIGAN CITY              30      50/  5/  7   N/A
$$

ILZ025>027-034>036-040-047-049-050-058-095>099-010900-
WEST-CENTRAL ILLINOIS

CITY           SKY/WX    TMP DP  RH WIND       PRES   REMARKS
QUINCY         LGT SNOW  33  31  92 SE14      29.92F VSB 3/4 WCI  23
$$

ILZ028>032-037-038-041>044-048-051>054-059>061-010900-
CENTRAL ILLINOIS

CITY           SKY/WX    TMP DP  RH WIND       PRES   REMARKS
BLOOMINGTON    LGT SNOW  34  34 100 SE6       30.06S VSB 1   WCI  29
DECATUR        CLOUDY    34  30  85 SE7       30.03F WCI  28
PEORIA         LGT SNOW  34  32  92 SE5       30.03F VSB 3/4 WCI  30
SPRINGFIELD    CLOUDY    36  31  82 SE13      30.01F WCI  27
TAYLORVILLE    NOT AVBL
$$

ILZ033-039-045-046-055>057-062-063-010900-
EAST-CENTRAL ILLINOIS

CITY           SKY/WX    TMP DP  RH WIND       PRES   REMARKS
CHAMPAIGN      LGT RAIN  33  31  92 SE15      30.07F WCI  23
MATTOON        CLOUDY    34  28  79 E5        30.03F WCI  30
$$

ILZ079-100>102-010900-
SOUTHWEST ILLINOIS

CITY           SKY/WX    TMP DP  RH WIND       PRES   REMARKS
BELLEVILLE     CLOUDY    37  29  70 SE5       29.97F WCI  34
CAHOKIA*       CLOUDY    39  27  62 SE7       29.97F WCI  34
$$

ILZ064>066-069>071-074>076-080>082-084>086-088>090-092>094-010900-
SOUTH-CENTRAL ILLINOIS

CITY           SKY/WX    TMP DP  RH WIND       PRES   REMARKS
CARBONDALE     CLOUDY    40  23  50 SE3       29.98F
MT. VERNON     CLOUDY    37  25  60 E7        29.99F WCI  32
$$

ILZ067-068-072-073-078-083-087-091-010900-
SOUTHEAST ILLINOIS

CITY           SKY/WX    TMP DP  RH WIND       PRES   REMARKS
LAWRENCEVILLE    N/A     36  27  69 E7        30.07F WCI  30
$$

ABBREVIATIONS USED IN REMARKS
   TC - TEMPERATURE IN CELSIUS
  WCI - WIND CHILL INDEX
   HX - HEAT INDEX
  VSB - VISIBILITY
$$



USA.gov is the U.S. government's official web portal to all federal, state and local government web resources and services.